Terminal Aerodrome Forecast
Issued by NWS Austin/San Antonio, TX

Home | Current Version | Previous Version | Text Only | Print | Product List | Glossary On
Versions: 1 2 3 4 5 6 7 8 9 10 11 12 13 14 15 16 17 18 19
000
FTUS44 KEWX 011700
TAFDRT
TAF
KDRT 011730Z 0118/0218 34005KT P6SM BKN040 BKN120
     FM020000 08006KT P6SM BKN120
     FM021100 09007KT P6SM BKN050 OVC120
     FM021500 10008KT P6SM BKN035 BKN250=

USA.gov is the U.S. government's official web portal to all federal, state and local government web resources and services.